#timestamp,LO_Frequency,Hit,StdDev 
1602584715.7,286046980.0,P
1602584735.5,286046979.1,P
1602584755.4,286046977.8,P
1602584775.2,286046978.3,Y
1602584795.0,286047000.8,P
1602584795.9,286047000.8,N
1602584815.8,286047002.7,N
1602584835.6,286047000.7,N
1602584855.5,286046998.3,N
1602584875.3,286046998.1,N
1602584895.1,286046999.2,N
1602584915.9,286046999.5,N
1602584935.7,286046997.3,N
1602584955.5,286046995.9,N
1602584975.4,286046994.5,N
1602584995.2,286046994.0,N
1602585015.1,286046993.5,N
1602585016.0,286046993.5,N
1602585035.8,286046996.2,N
1602585055.6,286046997.5,N
1602585075.5,286046997.7,N
1602585095.3,286046995.8,N
1602585115.1,286046994.5,N
1602585135.9,286046994.8,N
1602585155.7,286046993.2,N
1602585175.6,286046994.8,N
1602585195.4,286046994.8,N
1602585215.2,286046992.6,N
1602585235.1,286046990.3,N
1602585236.0,286046990.3,N
1602585255.8,286046990.1,N
1602585275.6,286046990.2,N
1602585295.5,286046990.9,N
1602585315.3,286046991.5,N
1602585335.2,286046991.0,N
1602585355.9,286046989.2,Y
1602585375.7,286046993.7,P
1602585395.6,286046991.8,P
1602585415.4,286046992.3,P
1602585435.3,286046991.9,Y
1602585455.1,286047000.5,P
1602585456.0,286047000.5,N
1602585475.8,286047002.8,N
1602585495.7,286047002.1,N
1602585515.5,286047002.3,N
1602585535.3,286046999.9,N
1602585555.2,286047000.1,N
1602585575.0,286047001.9,N
1602585575.9,286047001.9,N
1602585595.8,286047000.7,N
1602585615.6,286047000.0,N
1602585635.4,286047001.7,N
1602585655.3,286047001.6,N
1602585675.1,286046999.8,N
1602585695.8,286047000.0,N
1602585715.7,286047002.8,N
1602585735.5,286046999.7,N
1602585755.4,286047001.1,N
1602585775.2,286046998.1,N
1602585795.0,286047002.8,N
1602585795.9,286047002.8,N
1602585815.8,286047001.5,N
1602585835.6,286047002.3,N
1602585855.4,286047002.7,N
1602585875.3,286047000.3,N
1602585895.1,286047000.7,N
1602585915.9,286046998.5,N
1602585935.7,286046998.8,N
1602585955.5,286046995.1,N
1602585975.4,286046995.3,N
1602585995.2,286046994.9,N
1602586015.0,286046996.7,N
1602586016.0,286046996.7,N
1602586035.8,286046997.2,N
1602586055.6,286046994.6,N
1602586075.5,286046991.3,Y
1602586095.3,286046990.9,P
1602586115.1,286046992.0,N
1602586135.9,286046990.2,N
1602586155.7,286046991.9,N
1602586175.6,286046992.3,N
1602586195.4,286046992.0,N
1602586215.2,286046991.9,N
1602586235.1,286046994.3,N
1602586236.0,286046994.3,N
1602586255.8,286046994.5,N
1602586275.6,286046994.4,N
1602586295.5,286046994.4,N
1602586315.3,286046994.8,N
1602586335.2,286046990.7,Y
1602586355.9,286046995.3,P
1602586375.7,286046996.9,P
1602586395.6,286046993.5,P
1602586415.4,286046994.5,Y
1602586435.2,286047001.0,P
1602586455.1,286046998.8,N
1602586456.0,286046998.8,N
1602586475.8,286047001.0,N
1602586495.7,286047002.1,N
1602586515.5,286047005.4,N
1602586535.3,286047006.0,N
1602586555.2,286047003.1,N
1602586575.0,286047003.8,N
1602586575.9,286047003.8,N
1602586595.8,286047000.1,N
1602586615.6,286047000.5,N
1602586635.4,286047001.1,N
1602586655.3,286046998.3,N
1602586675.1,286047001.2,N
1602586695.9,286047001.0,N
1602586715.7,286047002.8,N
1602586735.5,286047002.3,N
1602586755.4,286047000.9,N
1602586775.2,286047000.2,N
1602586795.0,286047000.8,N
1602586795.9,286047000.8,N
